[[{"header":{"parameterUnit":"m.s-1","parameterCategory":1,"la1":30.2991,"la2":30.254,"lo1":-89.0895,"lo2":-89.0444,"dy":0.0017,"dx":0.0017,"nx":28,"ny":28,"refTime":"2023-08-26T09:00:00:Z","depth":0,"parameterNumber":2,"parameterNumberName":"U-component_of_WINDS"},"data":[0,0,0,0,0,0,0,0,0,0,0,0,0,0,0,0,0,0,0,0,0,0,0,0,0,0,0,0,0,0,0,0,0,0,0,0,0,0,0,0,0,0,0,0,0,0,0,0,0,0,0,0,0,0,0,0,0,0,1.3267,1.3268,0,1.3346,1.3347,1.3348,1.3331,1.3329,1.3328,1.3327,1.3411,1.3414,1.3418,0,0,0,0,0,0,0,0,0,0,0,0,0,1.3106,1.3109,1.3267,1.3268,1.3269,1.3346,1.3347,1.3348,1.3331,1.3329,1.3328,1.3326,1.3409,1.3414,1.3418,0,0,0,0,0,0,0,0,0,0,0,0,0,1.3179,1.311,1.3267,1.327,1.3271,1.3346,1.3347,1.3348,1.3331,1.3329,1.3327,1.3325,1.3408,1.3413,1.3419,1.3496,0,0,1.3435,1.3438,0,0,0,0,0,0,0,0,1.3175,1.3185,1.3268,1.327,1.3271,1.3326,1.3321,1.3398,1.3332,1.3309,1.3326,1.3324,1.3385,1.3392,1.3412,1.35,1.3504,1.3436,1.3439,1.3441,1.3443,0,0,0,0,0,0,0,1.317,1.3182,1.3298,1.3269,1.3271,1.3268,1.3276,1.3335,1.3358,1.331,1.3309,1.3319,1.3385,1.3406,1.3413,1.3505,1.3436,1.344,1.3444,1.3446,1.3664,1.3667,0,0,0,0,0,0,1.3163,1.3178,1.3296,1.3301,1.3217,1.3273,1.3282,1.3311,1.3357,1.3362,1.3321,1.3318,1.3398,1.3407,1.3416,1.3512,1.3441,1.3446,1.3449,1.3662,1.3665,1.3668,0,0,0,0,0,0,1.316,1.3174,1.3293,1.3239,1.3254,1.3278,1.3311,1.3313,1.3335,1.3365,1.3369,1.3338,1.3397,1.3409,1.3477,1.3514,1.3449,1.3454,1.3659,1.3663,1.3666,1.3703,0,0,0,0,0,0,1.3155,1.3173,1.3202,1.324,1.3257,1.3351,1.3313,1.3317,1.3344,1.3341,1.3383,1.3387,1.3396,1.3469,1.3482,1.3521,1.3458,1.3656,1.3661,1.3665,1.3698,1.3707,1.3715,0,0,0,0,0,1.315,1.3209,1.3203,1.3217,1.3293,1.3353,1.3363,1.337,1.3347,1.3377,1.3397,1.3386,1.3508,1.3476,1.3491,1.3532,1.3653,1.3659,1.3665,1.3694,1.3705,1.3715,0,0,0,0,0,0,1.3175,1.3214,1.3208,1.3281,1.3314,1.335,1.3387,1.3381,1.3422,1.3418,1.3427,1.3436,1.3506,1.3526,1.3489,1.3611,1.3578,1.3587,1.3595,1.3606,1.3614,1.3608,1.3462,0,0,0,0,0,1.3189,1.3233,1.3265,1.3327,1.3343,1.3363,1.3389,1.3392,1.3427,1.3441,1.3465,1.3501,1.3547,1.3577,1.3622,1.3701,1.3711,1.3737,1.3745,1.3752,1.376,1.3805,1.3817,1.3687,1.3687,1.3686,0,0,1.3219,1.3245,1.3273,1.3332,1.3358,1.3405,1.3374,1.3425,1.3461,1.3449,1.3515,1.3534,1.3574,1.3649,1.3683,1.3668,1.3798,1.3759,1.3764,1.3768,1.3812,1.3825,1.3836,1.369,1.369,1.3689,0,0,1.3297,1.3321,1.3375,1.3402,1.3441,1.3454,1.3467,1.3504,1.3517,1.3583,1.3576,1.3619,1.3698,1.3728,1.3753,1.3844,1.3837,1.3858,1.3902,1.3947,1.3957,1.3966,1.4,1.4012,1.3866,1.3866,1.3866,0,1.3329,1.3398,1.3404,1.3456,1.3483,1.3474,1.3531,1.3557,1.3609,1.3629,1.361,1.3711,1.3737,1.3819,1.3842,1.3862,1.3879,1.3854,1.3955,1.3964,1.3973,1.4005,1.4018,1.3869,1.3868,1.3868,1.3868,0,1.3436,1.3485,1.3524,1.3574,1.3606,1.366,1.3676,1.3708,1.3709,1.3724,1.3793,1.3824,1.3876,1.3895,1.3897,1.3979,1.3968,1.3952,1.3919,1.3987,1.4018,1.4031,1.3872,1.3871,1.3871,1.387,0,0,1.3532,1.3585,1.36,1.3623,1.3667,1.3705,1.376,1.3809,1.3837,1.3874,1.3921,1.3989,1.3975,1.4004,1.4009,1.4048,1.412,1.4027,1.4029,1.4045,1.4215,1.4227,1.4241,1.4115,1.4118,1.412,1.4212,0,1.3615,1.3709,1.3717,1.3803,1.3849,1.3842,1.389,1.3923,1.3939,1.3982,1.4,1.4049,1.4026,1.4044,1.4082,1.4103,1.4155,1.4097,1.4161,1.4163,1.4152,1.4257,1.427,1.4355,1.4224,1.4226,1.4227,0,1.3724,1.3763,1.3854,1.3892,1.3912,1.3954,1.4001,1.4042,1.408,1.4089,1.4122,1.4122,1.418,1.4145,1.4227,1.4187,1.4214,1.4229,1.4233,1.424,1.42,1.4268,1.4382,1.4395,1.4246,1.4244,1.4243,0,1.3786,1.3862,1.3926,1.3946,1.3993,1.4023,1.4044,1.408,1.411,1.4151,1.4171,1.4219,1.4246,1.4284,1.4298,1.4271,1.438,1.4345,1.4391,1.4391,1.4415,1.4413,1.4536,1.4431,1.443,1.443,1.443,0,1.3878,1.3934,1.3955,1.3995,1.4058,1.4067,1.413,1.415,1.4182,1.4227,1.4224,1.4267,1.4282,1.4328,1.4339,1.4406,1.4418,1.4429,1.4431,1.4429,1.4428,1.4448,1.4443,1.4433,1.4433,1.4432,1.4431,0,1.3958,1.3974,1.4044,1.4083,1.4094,1.4139,1.4172,1.4212,1.4228,1.4285,1.4299,1.4324,1.4378,1.4396,1.4461,1.4469,1.4547,1.4544,1.4534,1.4535,1.458,1.4576,1.4721,1.4741,1.4621,1.4622,1.4623,0,1.4016,1.4059,1.4102,1.4132,1.4154,1.4201,1.4231,1.4243,1.4275,1.4323,1.4357,1.441,1.4453,1.454,1.4566,1.4616,1.4615,1.4662,1.4623,1.462,1.4618,1.4615,1.4621,1.467,1.4671,1.4672,1.4673,0,1.4118,1.4124,1.4168,1.4215,1.4251,1.4289,1.4326,1.435,1.4368,1.4405,1.4459,1.4492,1.4559,1.4613,1.4665,1.4688,1.4685,1.4685,1.4699,1.4698,1.4691,1.4697,1.4556,1.4682,1.4681,1.468,1.468,1.4679,1.419,1.4229,1.4265,1.4315,1.4343,1.4378,1.4417,1.4438,1.4483,1.4538,1.4543,1.4602,1.4641,1.471,1.4737,1.4785,1.4772,1.4791,1.4796,1.4801,1.4805,1.4682,1.4794,1.4794,1.4794,1.4793,1.4793,0,1.4293,1.4317,1.4362,1.4413,1.4452,1.4444,1.4485,1.4519,1.4571,1.4607,1.4649,1.4714,1.4766,1.4796,1.4849,1.4882,1.4882,1.4896,1.4894,1.49,1.4813,1.4796,1.4895,1.4895,1.4895,1.4895,1.4895,1.4895,1.4352,1.4417,1.4428,1.4508,1.4532,1.4589,1.4613,1.4646,1.4675,1.4746,1.479,1.4808,1.4843,1.4899,1.4947,1.4955,1.4976,1.4991,1.4998,1.4916,1.4906,1.4896,1.488,1.4995,1.4995,1.5081,1.5082,1.5082]},{"header":{"parameterUnit":"m.s-1","parameterCategory":1,"la1":30.2991,"la2":30.254,"lo1":-89.0895,"lo2":-89.0444,"dy":0.0017,"dx":0.0017,"nx":28,"ny":28,"refTime":"2023-08-26T09:00:00:Z","depth":0,"parameterNumber":3,"parameterNumberName":"V-component_of_WINDS"},"data":[0,0,0,0,0,0,0,0,0,0,0,0,0,0,0,0,0,0,0,0,0,0,0,0,0,0,0,0,0,0,0,0,0,0,0,0,0,0,0,0,0,0,0,0,0,0,0,0,0,0,0,0,0,0,0,0,0,0,0.8244,0.8245,0,0.8283,0.8283,0.8284,0.8259,0.8258,0.8257,0.8256,0.8296,0.8298,0.83,0,0,0,0,0,0,0,0,0,0,0,0,0,0.8149,0.8151,0.8244,0.8245,0.8245,0.8283,0.8283,0.8284,0.826,0.8258,0.8257,0.8256,0.8295,0.8298,0.83,0,0,0,0,0,0,0,0,0,0,0,0,0,0.8189,0.8151,0.8244,0.8238,0.8237,0.8283,0.8283,0.8284,0.826,0.8258,0.8256,0.8255,0.8294,0.8298,0.8301,0.8355,0,0,0.831,0.8312,0,0,0,0,0,0,0,0,0.8187,0.8193,0.8238,0.8238,0.8238,0.8265,0.8264,0.8308,0.826,0.8251,0.8256,0.8254,0.8287,0.8291,0.8302,0.8356,0.8358,0.8311,0.8313,0.8314,0.8315,0,0,0,0,0,0,0,0.8184,0.8191,0.8259,0.8239,0.8239,0.8233,0.8236,0.8272,0.8278,0.8252,0.825,0.8255,0.8287,0.8299,0.8302,0.8359,0.8311,0.8313,0.8315,0.8317,0.8459,0.8461,0,0,0,0,0,0,0.8182,0.8189,0.8258,0.8261,0.8208,0.8236,0.824,0.8258,0.8278,0.8279,0.8257,0.8254,0.8294,0.8299,0.8304,0.8368,0.8314,0.8317,0.8319,0.8457,0.8459,0.8461,0,0,0,0,0,0,0.818,0.8188,0.8257,0.8224,0.8232,0.8239,0.8259,0.8259,0.8271,0.8281,0.8282,0.8268,0.8293,0.8299,0.8342,0.8369,0.8318,0.8321,0.8455,0.8458,0.846,0.8497,0,0,0,0,0,0,0.8177,0.8188,0.8209,0.8225,0.8234,0.8295,0.8261,0.8261,0.8277,0.8274,0.8292,0.8294,0.8292,0.8337,0.8345,0.8373,0.8324,0.8453,0.8456,0.846,0.8494,0.8501,0.8507,0,0,0,0,0,0.8174,0.8218,0.821,0.8218,0.826,0.8296,0.8302,0.8299,0.8279,0.83,0.8306,0.8293,0.8365,0.8342,0.835,0.8379,0.8451,0.8455,0.8459,0.8491,0.8499,0.8507,0,0,0,0,0,0,0.8205,0.822,0.8211,0.8261,0.8278,0.8292,0.8318,0.8308,0.8331,0.8327,0.8322,0.8327,0.8371,0.8379,0.8354,0.8432,0.8405,0.8411,0.8425,0.8434,0.8441,0.8438,0.8326,0,0,0,0,0,0.8217,0.8245,0.8256,0.83,0.8308,0.8312,0.8327,0.8324,0.8341,0.8347,0.8357,0.8374,0.84,0.8417,0.8442,0.8494,0.8498,0.8518,0.8525,0.853,0.8536,0.8564,0.8573,0.8475,0.8475,0.8475,0,0,0.8244,0.8255,0.8273,0.8306,0.8318,0.8347,0.8318,0.835,0.8371,0.8352,0.8393,0.8401,0.8419,0.8467,0.8488,0.8475,0.8564,0.8536,0.854,0.8543,0.8569,0.8578,0.8587,0.8478,0.8478,0.8477,0,0,0.8306,0.8318,0.8355,0.8368,0.8386,0.8388,0.8397,0.8413,0.8417,0.8458,0.8444,0.8469,0.8514,0.8528,0.8541,0.8607,0.8596,0.8616,0.8651,0.8679,0.8686,0.8693,0.8717,0.8726,0.8621,0.8621,0.8621,0,0.8337,0.838,0.8375,0.8408,0.8423,0.8406,0.8444,0.8456,0.8482,0.8493,0.8477,0.8533,0.8544,0.8595,0.8611,0.8622,0.8632,0.8614,0.8686,0.8692,0.8699,0.8721,0.873,0.8623,0.8623,0.8623,0.8623,0,0.8416,0.8446,0.8474,0.8499,0.8517,0.8552,0.8552,0.8571,0.8565,0.8569,0.861,0.8623,0.865,0.8661,0.8656,0.8711,0.8702,0.8686,0.8658,0.871,0.8732,0.874,0.8627,0.8626,0.8625,0.8624,0,0,0.8501,0.8522,0.8533,0.8543,0.8562,0.8585,0.8619,0.8645,0.8661,0.8679,0.8707,0.8745,0.8731,0.8745,0.8741,0.8765,0.8817,0.8746,0.8747,0.8759,0.8878,0.889,0.8901,0.8809,0.8811,0.8812,0.8877,0,0.8565,0.8624,0.8621,0.8676,0.8704,0.8688,0.8717,0.8732,0.8736,0.8759,0.8763,0.8791,0.8769,0.8778,0.88,0.8806,0.8841,0.8801,0.8836,0.8837,0.8832,0.8912,0.8925,0.8986,0.8885,0.8886,0.8887,0,0.8648,0.8669,0.8727,0.8741,0.8753,0.8779,0.8802,0.8825,0.8841,0.8842,0.8858,0.885,0.8884,0.8855,0.8901,0.8874,0.8887,0.8892,0.8894,0.8898,0.8866,0.8918,0.9005,0.9014,0.89,0.8899,0.8898,0,0.8704,0.8747,0.8787,0.8797,0.8814,0.8833,0.8841,0.8855,0.8871,0.8891,0.8901,0.8925,0.8938,0.8956,0.8955,0.8934,0.9002,0.8973,0.9004,0.9004,0.902,0.9019,0.911,0.9027,0.9027,0.9027,0.9027,0,0.8777,0.8813,0.8812,0.8837,0.8877,0.8872,0.8912,0.8918,0.8931,0.8956,0.8943,0.8968,0.8964,0.8988,0.8987,0.9025,0.9031,0.9033,0.9033,0.9035,0.9035,0.9044,0.904,0.903,0.9029,0.9029,0.9028,0,0.8847,0.8847,0.889,0.8903,0.8907,0.8936,0.8947,0.897,0.8972,0.9005,0.9012,0.9016,0.9044,0.9044,0.9075,0.9074,0.9122,0.9116,0.9117,0.9116,0.9147,0.9144,0.9249,0.9262,0.917,0.9171,0.9171,0,0.8893,0.8921,0.8936,0.8952,0.8962,0.8988,0.9004,0.8999,0.9016,0.9036,0.9057,0.9083,0.9104,0.9149,0.9155,0.9179,0.9174,0.9209,0.9177,0.9179,0.9175,0.9174,0.9176,0.9215,0.9216,0.9217,0.9218,0,0.8976,0.8975,0.8998,0.9021,0.904,0.9058,0.9075,0.9089,0.9086,0.9106,0.9134,0.915,0.9182,0.9208,0.9231,0.9239,0.9228,0.9227,0.9236,0.9239,0.9238,0.9239,0.9134,0.9225,0.9224,0.9224,0.9223,0.9223,0.9036,0.906,0.9074,0.91,0.9112,0.9128,0.915,0.9155,0.9178,0.9204,0.92,0.9231,0.9246,0.9275,0.9285,0.931,0.9297,0.931,0.9313,0.9316,0.932,0.9234,0.9314,0.9313,0.9313,0.9313,0.9313,0,0.9118,0.9127,0.9151,0.9174,0.9194,0.9181,0.9199,0.9217,0.9245,0.9259,0.928,0.9312,0.9337,0.9344,0.9369,0.9387,0.9382,0.9393,0.9392,0.9394,0.9329,0.932,0.9396,0.9396,0.9396,0.9396,0.9396,0.9396,0.9164,0.9203,0.9203,0.9248,0.9256,0.9287,0.9298,0.9312,0.9324,0.936,0.9381,0.9385,0.9396,0.9421,0.9444,0.9445,0.9455,0.9468,0.9468,0.9407,0.9399,0.9391,0.9382,0.947,0.947,0.9531,0.9531,0.9532]}]]